Theta_e
296 297 298 297 296 297 295 297 292 295 296 301 303 303 305 307 307 308 307 307 307 310 310 314 316 319 322 323 324 329 328 335 337 337 339 340 336 338 338 336 337 336 333 331
294 297 297 294 296 296 296 297 298 299 298 304 305 305 305 305 305 305 306 307 307 310 312 311 314 316 320 323 324 330 328 325 337 339 337 337 336 337 336 335 335 333 330 329
288 295 294 289 294 296 297 300 299 294 298 303 302 302 304 304 305 305 306 307 309 309 310 312 314 316 316 320 325 327 327 328 335 337 337 333 334 334 333 332 331 329 327 326
288 290 281 293 300 300 298 299 301 300 301 302 303 305 305 306 306 306 307 308 309 310 310 313 314 315 317 319 323 326 327 329 333 335 334 334 333 332 331 330 328 327 326 325
285 287 291 295 298 297 296 296 302 301 302 304 304 305 304 308 309 308 308 309 310 313 313 313 313 315 316 317 321 326 327 332 335 336 333 330 329 329 328 327 325 324 324 320
287 284 283 295 300 304 303 292 304 304 302 303 303 296 301 311 312 311 312 311 310 312 312 311 312 315 316 316 319 324 328 330 332 332 331 327 326 326 328 325 324 323 323 317
291 288 293 300 303 304 290 294 301 302 303 304 302 304 308 313 311 313 311 311 310 310 308 310 311 314 314 315 318 324 329 332 333 329 328 327 327 327 326 325 323 323 322 316
292 287 285 303 302 294 301 307 305 304 303 305 306 306 309 310 310 311 309 309 308 307 307 310 311 313 314 316 321 327 331 329 329 327 325 324 324 324 324 322 321 319 315 313
292 293 303 305 305 308 308 306 306 303 305 306 306 306 308 308 310 308 307 306 307 307 306 307 313 314 312 316 323 327 328 327 324 324 322 323 322 321 321 321 318 314 313 310
294 298 300 303 306 307 308 307 307 307 303 305 304 306 305 306 306 304 303 303 305 306 305 306 311 315 317 322 325 326 326 321 321 321 320 320 321 321 319 319 315 314 310 308
295 298 301 301 304 306 306 305 306 307 307 306 305 303 303 303 302 300 300 302 303 304 304 306 311 314 317 320 325 324 322 320 320 319 318 318 319 319 319 321 316 314 311 309
291 299 298 300 305 306 305 303 306 303 303 304 303 301 301 300 299 299 299 300 300 301 303 307 312 314 318 324 325 322 320 318 317 317 317 317 311 310 302 309 303 302 303 307
298 302 303 304 305 305 303 303 304 301 303 301 301 301 298 296 297 298 299 299 300 302 306 310 317 317 322 325 322 320 318 316 315 314 315 311 312 311 305 300 299 300 299 299
301 302 299 299 297 303 303 303 302 301 300 299 298 297 296 295 296 296 297 299 301 304 306 317 321 320 324 322 319 318 316 307 315 313 312 312 313 312 313 312 310 308 297 301
298 298 298 299 301 300 300 299 295 294 293 292 293 293 295 293 293 294 297 300 302 304 308 318 321 321 322 320 317 315 313 313 312 312 312 312 313 313 313 314 311 306 300 297
295 297 297 296 296 296 294 292 289 289 290 291 291 292 292 293 295 299 302 307 307 311 316 318 321 319 318 316 314 313 312 304 307 311 310 311 311 311 311 307 303 303 303 299
293 292 293 293 291 290 289 289 289 289 289 289 289 290 292 294 296 297 298 302 305 305 307 312 314 319 317 315 313 312 308 307 301 309 308 308 309 308 305 304 305 303 300 298
295 295 293 291 289 288 287 289 289 289 288 288 289 291 291 291 291 295 295 298 301 302 303 305 308 314 315 314 313 311 309 307 308 307 307 307 307 307 306 306 305 301 298 295
295 293 292 290 289 289 289 288 289 288 287 288 287 287 289 289 290 294 295 293 293 295 299 304 300 306 309 309 310 311 309 308 308 307 307 300 305 306 305 304 301 300 298 297
295 293 291 290 287 289 287 288 288 286 286 286 287 287 286 287 289 290 293 292 291 291 300 302 304 304 306 304 303 310 309 309 308 307 306 305 304 303 303 297 299 298 298 299
295 292 291 290 289 289 287 288 287 285 287 287 285 285 285 286 290 289 288 289 291 291 296 297 300 302 303 303 307 309 308 307 307 305 305 304 302 303 300 300 299 300 300 301
295 293 291 290 289 288 288 288 287 286 286 286 286 286 286 285 286 290 290 286 291 288 294 295 296 291 297 295 306 308 308 307 306 306 305 304 304 303 302 301 300 300 301 304
297 295 293 291 290 290 291 290 289 288 285 285 285 285 285 285 285 286 286 288 291 289 293 293 289 289 291 303 304 305 306 306 306 306 306 307 306 305 305 303 301 303 304 304
299 298 297 297 296 294 292 293 292 291 290 288 287 287 286 285 287 288 290 289 288 290 291 290 291 290 293 302 302 303 303 304 306 306 304 298 305 304 303 302 303 305 304 301
301 300 300 299 298 296 296 295 295 294 293 291 290 290 289 290 287 288 291 291 289 291 293 290 290 291 300 301 301 300 300 301 302 303 305 305 304 303 302 304 305 305 304 305
300 299 299 299 298 298 298 298 298 298 296 293 294 294 293 292 292 292 293 291 292 290 292 293 293 295 297 297 299 300 300 300 301 300 300 302 304 303 303 304 304 304 303 302
300 295 300 299 299 299 298 296 295 295 296 296 294 296 295 293 293 293 291 292 291 291 292 293 293 292 294 295 296 297 299 299 296 300 300 300 300 300 302 301 300 299 299 299
Wind_Speed
27 27 27 28 29 27 25 25 24 28 29 25 18 16 11 11 12 13 12 10 11 13 10 11 14 14 16 11 14 13 5 13 18 17 15 13 10 11 13 12 9 7 10 11
27 23 26 28 30 29 31 32 29 27 25 17 13 13 13 7 11 13 14 12 14 13 17 10 13 14 15 14 16 9 9 15 17 18 17 14 13 13 13 12 13 10 9 12
20 14 21 22 22 25 25 23 16 19 21 19 19 14 11 12 12 14 13 14 10 12 11 11 15 14 16 19 15 9 4 4 17 18 19 18 16 14 15 15 14 12 10 10
18 8 20 17 21 19 21 24 23 18 19 17 14 13 16 17 13 12 13 15 14 11 9 9 13 18 17 18 16 13 7 14 21 15 16 18 18 19 16 16 17 15 12 13
7 11 22 25 25 26 24 18 19 21 13 14 17 21 15 13 6 6 9 9 13 12 13 13 14 18 17 19 18 14 11 7 10 12 14 15 16 18 18 14 15 12 13 13
5 5 9 5 9 13 12 18 11 8 13 17 16 14 12 14 14 16 18 9 11 14 15 14 15 17 18 19 18 16 10 9 8 12 16 16 17 11 18 17 17 12 12 12
12 9 14 11 12 13 6 5 11 17 26 27 18 14 17 14 16 17 13 9 13 14 14 14 14 17 19 19 22 18 13 11 14 12 12 14 19 16 13 16 15 14 13 15
7 6 10 5 13 4 11 15 12 14 17 25 18 18 24 18 19 17 14 14 16 13 12 12 15 16 17 21 21 18 8 13 14 16 11 8 15 18 17 17 16 15 15 12
14 13 16 21 19 18 15 20 20 15 20 21 21 18 20 19 19 15 15 15 17 14 13 14 18 16 16 20 21 15 12 15 16 15 15 16 15 15 14 16 14 14 12 11
21 21 20 21 19 18 21 21 20 16 15 22 20 19 21 19 17 16 15 17 15 16 14 15 17 17 15 17 17 13 14 16 15 16 14 13 10 13 14 14 14 13 13 12
22 22 23 21 22 21 20 20 21 18 17 16 13 17 21 18 18 16 16 16 15 17 15 15 16 16 16 16 17 10 13 15 15 13 15 13 11 11 13 13 15 17 13 15
17 23 21 23 21 26 23 14 19 17 19 18 16 17 18 16 16 15 16 15 15 18 17 16 18 14 15 17 11 14 13 12 13 13 11 10 9 8 11 13 14 14 21 20
18 20 21 22 17 22 18 22 21 12 14 17 17 14 17 16 15 20 19 19 18 17 17 17 16 13 14 10 12 14 14 13 12 14 13 11 11 12 12 10 15 17 18 17
20 18 15 11 18 21 19 15 16 18 17 16 17 15 15 15 19 18 19 18 16 16 17 18 14 13 8 10 14 14 13 17 12 11 15 13 12 12 12 14 16 12 6 14
15 16 16 16 14 10 14 17 18 17 15 14 13 14 13 16 18 19 20 18 15 14 17 15 14 7 9 11 12 14 13 11 11 11 13 13 13 13 12 13 12 11 7 7
16 17 10 12 15 17 17 16 15 15 15 14 14 15 16 15 17 17 12 10 8 6 6 8 6 8 9 10 12 11 11 15 13 11 13 13 13 13 12 11 11 10 9 10
12 13 13 14 14 15 14 12 12 13 15 14 15 15 15 14 12 11 12 12 7 7 8 6 1 8 11 12 13 10 9 10 13 11 11 12 11 12 13 12 12 11 12 10
7 9 10 9 10 10 12 12 11 12 13 14 14 11 11 11 13 13 12 11 12 12 13 11 6 6 9 12 11 10 11 11 10 11 11 12 12 11 12 13 12 13 12 9
9 8 9 9 8 9 9 11 12 12 12 11 11 11 11 11 11 8 8 12 13 12 13 11 13 9 6 9 11 9 10 11 10 10 10 12 10 11 11 12 12 12 14 13
8 7 8 7 8 9 10 10 11 12 12 12 12 13 12 12 13 12 10 12 11 6 9 10 9 8 7 7 7 7 10 11 11 10 10 12 12 12 11 13 13 13 13 13
8 7 7 7 7 8 9 9 10 13 14 14 13 12 11 10 10 13 15 11 15 15 12 10 8 6 6 5 6 7 8 10 10 12 12 12 13 12 12 14 14 14 14 12
6 6 5 5 5 6 7 8 10 11 13 13 13 13 12 15 13 11 13 10 9 14 9 8 7 8 6 7 6 7 9 9 10 11 11 13 14 14 13 13 12 13 11 11
6 4 4 2 2 3 4 6 9 10 10 12 14 15 12 7 9 10 11 16 9 13 9 9 10 11 10 8 8 8 9 10 10 9 10 10 12 12 11 13 12 12 13 12
4 7 4 5 4 7 8 6 5 7 9 9 11 11 10 8 8 8 7 12 15 13 13 13 14 13 11 8 9 9 10 9 9 9 9 10 9 9 9 12 12 12 11 12
6 9 8 2 6 6 5 5 6 7 8 9 9 9 10 7 7 7 10 11 17 14 13 17 16 14 10 10 10 11 10 10 11 10 8 8 8 9 8 9 11 11 12 11
6 6 7 9 8 8 7 7 5 5 6 6 6 7 8 9 9 10 10 13 12 13 11 11 12 11 11 11 11 11 10 10 11 11 10 8 7 6 7 9 9 9 9 9
6 6 6 7 7 7 8 9 8 8 8 8 8 7 9 9 10 11 12 11 11 11 10 10 11 12 11 11 11 10 9 9 9 8 8 9 9 8 7 8 8 8 8 10
Wind_Direction
264 269 269 277 286 287 290 287 278 286 278 285 303 312 324 332 329 306 305 298 323 297 284 303 304 310 298 280 286 298 2 243 165 165 176 190 176 164 150 163 137 151 157 148
267 275 277 278 282 287 277 272 270 275 277 294 325 333 292 341 335 331 317 304 287 316 319 289 300 297 304 305 290 308 317 338 200 171 170 170 174 171 169 161 141 159 158 166
272 281 291 277 274 273 276 289 293 298 297 317 308 303 337 324 310 299 310 308 294 297 287 294 296 299 297 300 288 305 269 11 226 178 173 173 172 164 172 153 146 158 163 170
270 294 261 270 264 280 295 285 285 313 315 304 331 338 326 314 339 351 337 318 299 298 275 276 283 281 285 288 285 277 252 193 227 200 188 164 172 173 157 161 160 164 167 175
237 235 272 279 277 281 283 307 309 301 313 341 334 317 305 295 20 287 274 299 299 295 298 298 286 276 273 280 288 264 264 230 207 192 175 146 172 168 151 157 156 156 169 153
187 221 259 310 298 322 335 279 302 310 309 310 291 290 297 332 329 324 304 302 293 303 296 279 276 277 271 272 273 266 237 215 173 184 183 169 148 174 164 160 157 154 155 144
253 256 267 312 359 7 277 322 333 316 308 299 305 306 306 315 319 301 299 314 308 297 283 271 268 271 268 273 269 267 225 185 157 157 175 168 163 147 163 154 155 153 149 147
257 266 267 40 303 274 259 270 287 290 314 309 311 314 307 314 301 299 320 318 307 292 293 287 273 268 268 269 270 270 250 173 165 157 155 149 159 145 153 146 149 144 141 140
280 287 313 309 299 315 331 316 318 332 319 305 295 289 294 301 302 321 321 313 295 282 280 279 272 262 267 269 269 257 246 171 173 155 145 153 167 153 149 147 148 143 140 135
314 303 302 306 311 335 330 319 306 311 302 297 298 312 307 309 309 312 307 292 295 287 281 270 271 266 264 273 273 259 164 155 158 155 150 149 164 152 150 153 151 148 141 138
290 297 312 318 319 320 314 325 313 324 312 300 309 312 306 303 305 298 290 290 286 285 278 272 268 264 267 273 264 181 157 151 156 153 148 152 160 156 161 168 163 151 151 148
299 309 303 302 311 311 309 314 304 319 317 310 313 307 307 301 297 296 292 289 284 281 277 272 265 257 258 260 190 168 151 155 147 152 132 150 136 112 42 152 135 142 144 151
306 312 308 310 320 334 324 314 306 312 306 316 314 319 309 302 297 295 291 285 280 277 274 271 261 256 268 177 169 165 149 150 149 149 137 146 146 142 130 73 94 128 133 131
302 309 307 316 311 305 292 288 324 324 325 326 320 314 304 295 295 291 286 283 279 276 278 277 251 246 177 163 160 154 147 153 149 161 139 153 151 152 144 147 144 145 71 124
332 315 293 290 292 323 345 340 332 324 323 314 313 302 302 301 295 293 290 279 272 271 273 273 270 187 153 155 159 148 149 153 140 148 142 156 148 151 152 153 141 134 116 75
305 298 342 337 350 346 340 337 328 322 316 314 309 308 303 293 288 291 311 319 302 290 270 277 180 144 144 139 141 145 142 137 136 147 152 150 152 146 148 141 140 136 140 141
318 343 352 343 341 339 337 326 319 320 319 320 311 308 307 306 314 334 336 332 4 23 23 17 64 140 148 148 147 141 133 140 138 143 151 146 148 143 142 149 147 142 134 148
7 4 8 356 346 335 332 333 330 334 328 323 316 322 332 338 339 343 338 353 16 24 24 14 14 75 149 149 147 143 145 142 145 149 147 145 146 146 143 145 144 135 130 141
43 20 17 16 357 337 335 337 340 333 334 333 339 348 353 355 335 331 358 25 18 13 1 360 10 47 80 140 144 146 147 151 143 143 142 128 133 139 144 143 141 137 142 139
51 38 38 19 5 358 345 345 348 352 350 355 357 8 355 351 359 3 13 39 14 344 347 14 17 33 66 93 115 138 148 143 143 146 139 141 141 142 144 137 137 138 143 144
61 44 32 22 6 4 358 351 353 360 360 7 7 357 350 349 8 18 22 20 1 351 357 14 33 26 29 62 113 128 131 135 143 139 144 141 135 133 138 140 138 144 152 156
72 56 37 29 19 12 5 358 6 5 5 7 9 7 11 16 11 23 32 16 350 356 10 11 13 28 43 52 71 103 125 131 133 137 141 143 140 135 136 133 139 144 153 161
110 111 105 98 60 27 26 20 18 14 8 4 12 7 6 5 12 17 10 352 360 10 23 23 9 22 32 48 61 74 96 113 123 130 139 136 137 135 140 133 142 156 171 149
82 159 181 159 192 49 30 37 44 38 24 22 21 14 4 5 21 16 8 15 13 21 25 17 21 22 32 46 57 63 72 81 102 99 93 95 104 111 128 137 154 162 141 143
45 44 27 86 64 80 70 63 51 47 40 32 24 21 15 11 24 4 19 21 20 25 25 17 19 26 36 43 52 54 58 63 66 71 83 95 101 118 130 140 147 136 144 148
27 57 71 58 46 30 53 47 57 77 69 41 44 37 28 25 20 25 26 23 26 26 29 25 23 27 37 42 49 51 54 58 65 64 64 75 98 125 129 121 118 119 116 115
67 353 76 80 83 69 74 68 59 43 53 57 66 73 61 35 31 31 29 28 27 27 28 31 31 28 34 38 41 43 49 54 57 76 76 80 73 71 78 86 92 97 105 105